| time (UTC) | temp F | wind direction | speed MPH | gust MPH | rain 1hr in | rain 24hr in | rain mn in | humidity % | barometer mb |
| 20260906203034 | 89 | 244 | 2.0 | 9.0 | 0.00 | 0.00 | 0.00 | 17 | 1020.0 |
| 20260906201535 | 89 | 263 | 6.0 | 9.0 | 0.00 | 0.00 | 0.00 | 17 | 1020.0 |
| 20260906200031 | 88 | 14 | 3.0 | 11.0 | 0.00 | 0.00 | 0.00 | 17 | 1020.0 |
| 20260906194529 | 87 | 332 | 4.0 | 12.0 | 0.00 | 0.00 | 0.00 | 19 | 1020.3 |
| 20260906193027 | 87 | 360 | 5.0 | 15.0 | 0.00 | 0.00 | 0.00 | 18 | 1020.4 |
| 20260906191529 | 88 | 327 | 1.0 | 5.0 | 0.00 | 0.00 | 0.00 | 19 | 1020.6 |
| 20260906190022 | 87 | 250 | 2.0 | 13.0 | 0.00 | 0.00 | 0.00 | 20 | 1020.8 |
| 20260906184520 | 86 | 319 | 7.0 | 11.0 | 0.00 | 0.00 | 0.00 | 19 | 1020.9 |
| 20260906183018 | 85 | 315 | 3.0 | 14.0 | 0.00 | 0.00 | 0.00 | 20 | 1021.2 |
| 20260906181514 | 84 | 339 | 3.0 | 13.0 | 0.00 | 0.00 | 0.00 | 20 | 1021.3 |
| 20260906180012 | 83 | 349 | 3.0 | 11.0 | 0.00 | 0.00 | 0.00 | 21 | 1021.5 |
| 20260906174510 | 83 | 33 | 5.0 | 12.0 | 0.00 | 0.00 | 0.00 | 22 | 1021.7 |
| 20260906173006 | 82 | 9 | 5.0 | 13.0 | 0.00 | 0.00 | 0.00 | 23 | 1021.9 |
| 20260906171503 | 82 | 348 | 6.0 | 11.0 | 0.00 | 0.00 | 0.00 | 23 | 1022.0 |
| 20260906170109 | 81 | 344 | 7.0 | 15.0 | 0.00 | 0.00 | 0.00 | 25 | 1022.1 |
| 20260906164556 | 79 | 355 | 4.0 | 13.0 | 0.00 | 0.00 | 0.00 | 27 | 1022.0 |
| 20260906163103 | 78 | 9 | 5.0 | 14.0 | 0.00 | 0.00 | 0.00 | 30 | 1022.1 |
| 20260906161548 | 77 | 347 | 9.0 | 15.0 | 0.00 | 0.00 | 0.00 | 31 | 1022.2 |
| 20260906160044 | 75 | 350 | 6.0 | 15.0 | 0.00 | 0.00 | 0.00 | 34 | 1022.2 |
| 20260906154539 | 73 | 340 | 6.0 | 12.0 | 0.00 | 0.00 | 0.00 | 37 | 1022.3 |
| 20260906153036 | 71 | 9 | 7.0 | 12.0 | 0.00 | 0.00 | 0.00 | 40 | 1022.2 |
| 20260906151534 | 71 | 355 | 5.0 | 13.0 | 0.00 | 0.00 | 0.00 | 43 | 1022.1 |
| 20260906150031 | 69 | 342 | 4.0 | 9.0 | 0.00 | 0.00 | 0.00 | 45 | 1022.1 |
| 20260906144533 | 67 | 336 | 3.0 | 8.0 | 0.00 | 0.00 | 0.00 | 49 | 1022.1 |
| 20260906143050 | 65 | 321 | 2.0 | 5.0 | 0.00 | 0.00 | 0.00 | 51 | 1022.0 |
| 20260906141524 | 63 | 337 | 2.0 | 4.0 | 0.00 | 0.00 | 0.00 | 55 | 1022.0 |
| 20260906140030 | 62 | 342 | 0.0 | 5.0 | 0.00 | 0.00 | 0.00 | 56 | 1022.0 |
| 20260906134516 | 62 | 336 | 2.0 | 4.0 | 0.00 | 0.00 | 0.00 | 56 | 1022.0 |
| 20260906133015 | 62 | 355 | 2.0 | 4.0 | 0.00 | 0.00 | 0.00 | 55 | 1021.9 |
| 20260906131524 | 62 | 23 | 2.0 | 5.0 | 0.00 | 0.00 | 0.00 | 55 | 1021.7 |
| 20260906130010 | 62 | 355 | 0.0 | 8.0 | 0.00 | 0.00 | 0.00 | 54 | 1021.5 |
| 20260906123006 | 62 | 347 | 3.0 | 9.0 | 0.00 | 0.00 | 0.00 | 53 | 1021.3 |
| 20260906121505 | 62 | 341 | 2.0 | 5.0 | 0.00 | 0.00 | 0.00 | 53 | 1021.3 |
| 20260906120003 | 62 | 350 | 4.0 | 8.0 | 0.00 | 0.00 | 0.00 | 53 | 1021.1 |
| 20260906113102 | 63 | 333 | 4.0 | 6.0 | 0.00 | 0.00 | 0.00 | 54 | 1021.2 |
| 20260906111611 | 63 | 157 | 1.0 | 3.0 | 0.00 | 0.00 | 0.00 | 56 | 1021.2 |
| 20260906110057 | 64 | 157 | 0.0 | 5.0 | 0.00 | 0.00 | 0.00 | 56 | 1021.2 |
| 20260906104657 | 64 | 155 | 0.0 | 3.0 | 0.00 | 0.00 | 0.00 | 56 | 1021.1 |
| 20260906103055 | 64 | 155 | 0.0 | 5.0 | 0.00 | 0.00 | 0.00 | 56 | 1021.1 |
| 20260906101555 | 63 | 144 | 4.0 | 8.0 | 0.00 | 0.00 | 0.00 | 54 | 1021.1 |
| 20260906100053 | 64 | 68 | 2.0 | 4.0 | 0.00 | 0.00 | 0.00 | 53 | 1021.0 |
| 20260906094553 | 64 | 68 | 1.0 | 3.0 | 0.00 | 0.00 | 0.00 | 53 | 1020.8 |
| 20260906093051 | 64 | 68 | 1.0 | 4.0 | 0.00 | 0.00 | 0.00 | 53 | 1020.8 |
| 20260906091550 | 64 | 68 | 0.0 | 2.0 | 0.00 | 0.00 | 0.00 | 53 | 1020.9 |
| 20260906090055 | 64 | 68 | 0.0 | 2.0 | 0.00 | 0.00 | 0.00 | 53 | 1020.9 |
| 20260906084552 | 64 | 68 | 0.0 | 3.0 | 0.00 | 0.00 | 0.00 | 53 | 1020.9 |
| 20260906083052 | 63 | 68 | 2.0 | 5.0 | 0.00 | 0.00 | 0.00 | 55 | 1021.0 |
| 20260906081547 | 63 | 68 | 0.0 | 1.0 | 0.00 | 0.00 | 0.00 | 55 | 1020.9 |
| 20260906080049 | 64 | 68 | 0.0 | 4.0 | 0.00 | 0.00 | 0.00 | 54 | 1021.0 |
| 20260906074542 | 65 | 68 | 0.0 | 0.0 | 0.00 | 0.00 | 0.00 | 53 | 1021.0 |
| 20260906073042 | 66 | 68 | 0.0 | 3.0 | 0.00 | 0.00 | 0.00 | 51 | 1020.9 |
| 20260906071550 | 66 | 68 | 0.0 | 0.0 | 0.00 | 0.00 | 0.00 | 50 | 1020.9 |
| 20260906070034 | 67 | 68 | 0.0 | 0.0 | 0.00 | 0.00 | 0.00 | 49 | 1021.0 |
| 20260906064532 | 68 | 68 | 0.0 | 1.0 | 0.00 | 0.00 | 0.00 | 48 | 1021.1 |
| 20260906063031 | 68 | 68 | 2.0 | 5.0 | 0.00 | 0.00 | 0.00 | 48 | 1021.1 |
| 20260906061530 | 68 | 111 | 0.0 | 0.0 | 0.00 | 0.00 | 0.00 | 51 | 1021.1 |
| 20260906060033 | 68 | 111 | 0.0 | 2.0 | 0.00 | 0.00 | 0.00 | 50 | 1020.9 |
| 20260906054526 | 69 | 111 | 0.0 | 1.0 | 0.00 | 0.00 | 0.00 | 48 | 1020.9 |
| 20260906053026 | 70 | 111 | 0.0 | 2.0 | 0.00 | 0.00 | 0.00 | 47 | 1021.0 |
| 20260906051525 | 71 | 111 | 1.0 | 4.0 | 0.00 | 0.00 | 0.00 | 46 | 1021.0 |
| 20260906050026 | 71 | 119 | 1.0 | 4.0 | 0.00 | 0.00 | 0.00 | 46 | 1020.9 |
| 20260906044524 | 71 | 123 | 3.0 | 7.0 | 0.00 | 0.00 | 0.00 | 46 | 1020.9 |
| 20260906043029 | 71 | 138 | 5.0 | 10.0 | 0.00 | 0.00 | 0.00 | 47 | 1020.9 |
| 20260906041523 | 72 | 110 | 3.0 | 10.0 | 0.00 | 0.00 | 0.00 | 46 | 1020.9 |
| 20260906040029 | 73 | 105 | 3.0 | 7.0 | 0.00 | 0.00 | 0.00 | 44 | 1020.9 |
| 20260906034533 | 74 | 134 | 0.0 | 7.0 | 0.00 | 0.00 | 0.00 | 42 | 1020.8 |
| 20260906033026 | 74 | 182 | 3.0 | 9.0 | 0.00 | 0.00 | 0.00 | 36 | 1020.7 |
| 20260906031521 | 74 | 153 | 8.0 | 12.0 | 0.00 | 0.00 | 0.00 | 37 | 1020.5 |
| 20260906030021 | 75 | 156 | 4.0 | 8.0 | 0.00 | 0.00 | 0.00 | 32 | 1020.3 |
| 20260906024521 | 76 | 221 | 4.0 | 8.0 | 0.00 | 0.00 | 0.00 | 31 | 1019.9 |
| 20260906023019 | 76 | 212 | 5.0 | 9.0 | 0.00 | 0.00 | 0.00 | 31 | 1019.7 |
| 20260906021521 | 77 | 227 | 5.0 | 10.0 | 0.00 | 0.00 | 0.00 | 30 | 1019.7 |
| 20260906020019 | 78 | 209 | 5.0 | 12.0 | 0.00 | 0.00 | 0.00 | 29 | 1019.5 |
| 20260906014527 | 79 | 223 | 6.0 | 12.0 | 0.00 | 0.00 | 0.00 | 28 | 1019.4 |
| 20260906013017 | 80 | 211 | 6.0 | 15.0 | 0.00 | 0.00 | 0.00 | 27 | 1019.3 |
| 20260906011532 | 82 | 234 | 5.0 | 17.0 | 0.00 | 0.00 | 0.00 | 27 | 1019.4 |
| 20260906010015 | 83 | 250 | 5.0 | 14.0 | 0.00 | 0.00 | 0.00 | 26 | 1019.3 |
| 20260906004524 | 84 | 213 | 8.0 | 14.0 | 0.00 | 0.00 | 0.00 | 25 | 1019.3 |
| 20260906003013 | 85 | 236 | 8.0 | 15.0 | 0.00 | 0.00 | 0.00 | 24 | 1019.3 |
| 20260906001512 | 86 | 225 | 7.0 | 11.0 | 0.00 | 0.00 | 0.00 | 24 | 1019.3 |
| 20260906000012 | 86 | 269 | 8.0 | 15.0 | 0.00 | 0.00 | 0.00 | 23 | 1019.3 |
| 20260905234511 | 88 | 219 | 4.0 | 13.0 | 0.00 | 0.00 | 0.00 | 23 | 1019.2 |
| 20260905233010 | 88 | 237 | 6.0 | 14.0 | 0.00 | 0.00 | 0.00 | 23 | 1019.2 |
| 20260905231510 | 89 | 248 | 7.0 | 16.0 | 0.00 | 0.00 | 0.00 | 23 | 1019.2 |
| 20260905230008 | 88 | 238 | 9.0 | 14.0 | 0.00 | 0.00 | 0.00 | 23 | 1019.4 |
| 20260905224515 | 89 | 198 | 8.0 | 17.0 | 0.00 | 0.00 | 0.00 | 23 | 1019.3 |
| 20260905223006 | 89 | 246 | 6.0 | 12.0 | 0.00 | 0.00 | 0.00 | 23 | 1019.4 |
| 20260905221504 | 89 | 244 | 7.0 | 14.0 | 0.00 | 0.00 | 0.00 | 24 | 1019.5 |
| 20260905220005 | 89 | 304 | 8.0 | 16.0 | 0.00 | 0.00 | 0.00 | 24 | 1019.6 |
| 20260905214501 | 89 | 273 | 6.0 | 12.0 | 0.00 | 0.00 | 0.00 | 24 | 1019.7 |
| 20260905213104 | 90 | 273 | 10.0 | 16.0 | 0.00 | 0.00 | 0.00 | 23 | 1019.9 |
| 20260905211557 | 89 | 227 | 4.0 | 12.0 | 0.00 | 0.00 | 0.00 | 24 | 1020.0 |
| 20260905210055 | 88 | 266 | 10.0 | 17.0 | 0.00 | 0.00 | 0.00 | 25 | 1020.1 |
| 20260905204601 | 88 | 331 | 4.0 | 16.0 | 0.00 | 0.00 | 0.00 | 25 | 1020.3 |